Regional Weather Roundup
Issued by NWS

Home | Current Version | Previous Version | Graphics & Text | Print | Product List | Glossary On
Versions: 1 2 3 4 5 6 7 8 9 10 11 12 13 14 15 16 17 18 19 20 21 22 23 24 25 26 27 28 29 30 31 32 33 34 35 36 37 38 39 40 41 42 43 44 45 46 47 48 49 50
000
ASUS43 KLOT 252010
RWRIL

ILLINOIS REGIONAL WEATHER ROUNDUP
NATIONAL WEATHER SERVICE CHICAGO/ROMEOVILLE IL
200 PM CST TUE NOV 25 2014

NOTE: "FAIR" INDICATES FEW OR NO CLOUDS BELOW 12,000 FEET WITH NO
SIGNIFICANT WEATHER AND/OR OBSTRUCTIONS TO VISIBILITY.

* THESE STATIONS ARE NOT UNDER NWS QUALITY CONTROL. THEY ALSO MAY NOT
  REPORT WEATHER SUCH AS PRECIPITATION OR FOG.

ILZ001-002-007-009-015-016-024-252100-
NORTHWEST ILLINOIS

CITY           SKY/WX    TMP DP  RH WIND       PRES   REMARKS
MOLINE         SUNNY     26  16  65 W6        30.14R WCI  19
STERLING*      MOSUNNY   25  14  63 W7        30.14R WCI  17
SAVANNA*       SUNNY     25  16  68 SW9       30.13R WCI  15
$$

ILZ003-004-008-010-011-017-018-252100-
NORTH CENTRAL ILLINOIS

CITY           SKY/WX    TMP DP  RH WIND       PRES   REMARKS
ROCKFORD       MOSUNNY   22  14  71 W8        30.14R WCI  12
FREEPORT*      SUNNY     20  14  76 SW12      30.12R WCI   8
ROCHELLE*      SUNNY     20  15  81 W13       30.13R WCI   8
DE KALB*       MOSUNNY   20  15  79 SW14      30.12R WCI   7
PERU*          PTSUNNY   25  18  73 SW12      30.15S WCI  14
$$

ILZ005-006-012>014-019>023-252100-
NORTHEAST ILLINOIS

CITY           SKY/WX    TMP DP  RH WIND       PRES   REMARKS
CHICAGO-OHARE  MOSUNNY   25  17  72 W12       30.11R WCI  14
CHICAGO-MIDWAY PTSUNNY   28  18  66 SW15      30.13R WCI  16
AURORA         PTSUNNY   24  15  68 W12       30.13R WCI  13
LANSING*       CLOUDY    26  19  74 SW14      30.14R WCI  14
JOLIET*        CLOUDY    24  17  74 W7        30.15R WCI  16
WAUKEGAN       MOSUNNY   27  18  69 VRB5      30.08R WCI  22
DUPAGE AIRPORT MOSUNNY   23  17  78 SW13      30.12R WCI  11
KANKAKEE*      CLOUDY   N/A N/A N/A SW10      30.17R
WHEELING       MOSUNNY   27  17  66 SW12G18   30.12R WCI  17
MORRIS*        CLOUDY    25  19  79 SW9       30.15R WCI  15
ROMEOVILLE*    CLOUDY    24  18  78 SW12      30.14R WCI  13
NORTHERLY ISL    N/A     27  17  66 SW13        N/A  WCI  16
$$

LMZ740>746-252100-
SOUTHERN LAKE MICHIGAN

STATION/POSITION SKY/WX   TEMP    WIND        PRES    VSBY  WAVE
                          AIR SEA DIR/SP/G                  HT/PER
                          (F)     (DEG/KT/KT) (MB)    (MI)  (FT/S)
SOUTHERN BUOY              27 42  260/ 10/ 16 1019.4R         4/ 6
WAUKEGAN HARBOR            26     270/ 10/ 14   N/A
HARRISON CRIB              27     230/ 14/ 18   N/A
BURNHAM HARBOR             27     200/  8/ 15   N/A
CALUMET HARBOR             27     220/  8/ 14 1019.0R
MICHIGAN CITY              27     200/ 13/ 19   N/A
$$

ILZ025>027-034>036-040-047-049-050-058-095>099-252100-
WEST-CENTRAL ILLINOIS

CITY           SKY/WX    TMP DP  RH WIND       PRES   REMARKS
QUINCY         SUNNY     34  20  56 W9        30.14F WCI  27
GALESBURG*     PTSUNNY   27  21  77 SW7       30.15R WCI  20
MACOMB*        MOSUNNY   30  24  76 W6        30.17S WCI  24
JACKSONVILLE*  SUNNY     37  25  61 SW9       30.15F WCI  31
PITTSFIELD*    SUNNY     36  24  61 SW8       30.16S WCI  30
$$

ILZ028>032-037-038-041>044-048-051>054-059>061-252100-
CENTRAL ILLINOIS

CITY           SKY/WX    TMP DP  RH WIND       PRES   REMARKS
PONTIAC        CLOUDY    26  20  80 W7        30.17R WCI  18
BLOOMINGTON    CLOUDY    25  20  81 W10       30.16F WCI  15
DECATUR        CLOUDY    31  22  69 SW7       30.16F WCI  24
PEORIA         CLOUDY    29  20  69 SW8       30.16S WCI  21
LACON*         CLOUDY    24  17  76 W6        30.16S WCI  17
LINCOLN*       CLOUDY    32  24  71 SW5       30.17F WCI  27
SPRINGFIELD    MOSUNNY   35  24  64 VRB6      30.16F WCI  30
TAYLORVILLE    CLOUDY    32  25  74 W7        30.16F WCI  26
$$

ILZ033-039-045-046-055>057-062-063-252100-
EAST-CENTRAL ILLINOIS

CITY           SKY/WX    TMP DP  RH WIND       PRES   REMARKS
CHAMPAIGN      CLOUDY    27  21  78 W15G21    30.16F WCI  15
DANVILLE*      CLOUDY    27  21  80 SW12      30.14S WCI  16
RANTOUL*       CLOUDY    29  22  74 W9G16     30.16F WCI  21
MATTOON        CLOUDY    31  22  69 NW13      30.15F WCI  21
PARIS*         CLOUDY    29  24  81 W12       30.18S WCI  19
$$

ILZ079-100>102-252100-
SOUTHWEST ILLINOIS

CITY           SKY/WX    TMP DP  RH WIND       PRES   REMARKS
BELLEVILLE     SUNNY     40  25  53 NW8       30.15F
CAHOKIA*       SUNNY     40  25  55 N5        30.15F
SPARTA*        SUNNY     38  26  62 CALM      30.16F
$$

ILZ064>066-069>071-074>076-080>082-084>086-088>090-092>094-252100-
SOUTH-CENTRAL ILLINOIS

CITY           SKY/WX    TMP DP  RH WIND       PRES   REMARKS
CARBONDALE     SUNNY     41  25  53 NW9       30.16F
CAIRO*         SUNNY     45  26  47 W7        30.16F
EFFINGHAM*     PTSUNNY   34  22  63 W8        30.16F WCI  27
MARION         MOSUNNY   39  27  60 NW8       30.17F WCI  34
MT. VERNON     MOSUNNY   36  23  60 N5        30.17S WCI  32
CENTRALIA*     MOSUNNY   34  25  70 N7        30.16S WCI  28
SALEM*           N/A     37  27  68 W8        30.16F WCI  31
METROPOLIS*    SUNNY     44  28  53 W7          N/A
$$

ILZ067-068-072-073-078-083-087-091-252100-
SOUTHEAST ILLINOIS

CITY           SKY/WX    TMP DP  RH WIND       PRES   REMARKS
LAWRENCEVILLE  CLOUDY    33  26  75 NW8       30.17F WCI  26
FLORA*         MOSUNNY   32  26  78 NW7       30.18S WCI  26
FAIRFIELD*     CLOUDY    34  26  72 W3        30.16S
HARRISBURG*    SUNNY     40  27  59 W7        30.17F
ROBINSON*      CLOUDY    32  26  77 W9G18     30.18F WCI  24
CARMI*         CLOUDY    39  31  72 W9        30.17R WCI  33
$$

ABBREVIATIONS USED IN REMARKS
   TC - TEMPERATURE IN CELSIUS
  WCI - WIND CHILL INDEX
   HX - HEAT INDEX
  VSB - VISIBILITY
$$




USA.gov is the U.S. government's official web portal to all federal, state and local government web resources and services.